This demonstration page uses our WeatherBlox Daily Observations layout. Learn more.

Left ArrowRight Arrow

Hourly Observations for June 23, 2020

Temp ( °F °C ) Dew Point ( °F °C ) Humidity (%) Winds ( mph kmh ) Pressure ( in mb ) Visibility ( mi km ) Precip ( " mm )
12:56 am 00:56 Mostly Cloudy 68 19.8 60 15.4 76 76 NNW 8 13 29.94 1014 10 16 0.00 0.00
1:56 am 01:56 Mostly Clear 62 16.6 59 14.9 90 90 WNW 8 13 29.96 1014 10 16 0.00 0.00
2:56 am 02:56 Clear 61 15.9 58 14.3 90 90 WNW 7 11 29.96 1014 10 16 0.00 0.00
3:56 am 03:56 Clear 59 15 56 13.4 90 90 NW 9 15 29.97 1015 10 16 0.00 0.00
4:56 am 04:56 Clear 58 14.7 55 12.6 87 87 NW 9 15 29.96 1014 10 16 0.00 0.00
5:56 am 05:56 Sunny 57 13.9 54 12.1 89 89 NW 12 19 29.97 1015 10 16 0.00 0.00
6:56 am 06:56 Sunny 59 15 55 12.5 85 85 NW 9 15 29.99 1016 10 16 0.00 0.00
7:56 am 07:56 Sunny 63 17.4 55 12.9 75 75 NW 10 17 30.00 1016 10 16 0.00 0.00
8:56 am 08:56 Sunny 68 20 55 13 64 64 WNW 9 15 30.01 1016 10 16 0.00 0.00
9:56 am 09:56 Sunny 72 22.2 55 12.7 55 55 WNW 10 17 30.01 1016 10 16 0.00 0.00
10:56 am 10:56 Sunny 74 23.5 54 12.2 49 49 WNW 9 15 29.99 1016 10 16 0.00 0.00
11:56 am 11:56 Partly Cloudy 77 25 53 11.5 43 43 NNW 9 15 29.99 1016 10 16 0.00 0.00
12:56 pm 12:56 Mostly Cloudy 78 25.7 52 11.1 40 40 NW 13 20 29.98 1015 10 16 0.00 0.00
1:27 pm 13:27 Partly Cloudy 79 26 54 12 42 42 N 13 20 29.98 1015 10 16 0.00 0.00
1:56 pm 13:56 Partly Cloudy 79 25.9 52 10.9 39 39 NW 9 15 29.98 1015 10 16 0.00 0.00
2:56 pm 14:56 Mostly Cloudy 79 26 52 11 39 39 N 13 20 29.98 1015 10 16 0.00 0.00
3:56 pm 15:56 Mostly Cloudy 77 25.1 52 10.9 41 41 NNW 9 15 29.97 1015 10 16 0.00 0.00
4:56 pm 16:56 Mostly Sunny 80 26.4 54 12.1 41 41 N 12 19 29.96 1015 10 16 0.00 0.00
5:56 pm 17:56 Partly Cloudy 78 25.6 54 12.4 44 44 N 8 13 29.94 1014 10 16 0.00 0.00
6:56 pm 18:56 Sunny 76 24.2 51 10.8 43 43 NNW 13 20 29.93 1014 10 16 0.00 0.00
7:56 pm 19:56 Sunny 75 23.9 53 11.6 46 46 N 8 13 29.93 1013 10 16 0.00 0.00
8:56 pm 20:56 Sunny 71 21.5 55 12.6 57 57 N 5 7 29.91 1013 10 16 0.00 0.00
9:56 pm 21:56 Clear 62 16.8 55 12.7 77 77 NNW 5 7 29.93 1014 10 16 0.00 0.00
10:56 pm 22:56 Clear 60 15.8 54 12 78 78 Calm 29.96 1015 10 16 0.00 0.00
11:56 pm 23:56 Clear 58 14.4 53 11.9 85 85 Calm 29.96 1015 10 16 0.00 0.00

Powered by AerisWeather